Showing default

CHINASAT 19, 54230

Orbit data source: Space-Track

CHINASAT 19, 54230 is a payload satellite owned by China Satcom (CN) in GEO that was launched on Sat, 05 Nov 2022 UTC via a CHANG ZHENG 3B launch vehicle from the Xichang Space Center, China (XSC). Payload-class satellites include a variety of spacecraft equipped with specific instruments for various scientific and technological missions. These include communications satellites like Starlink; space stations such as the ISS; scientific satellites like the Hubble; Earth observation satellites from companies like Planet Labs, Umbra, and HawkEye 360; GPS; miniature CubeSats for education and research; and military/defense satellites.

Not visible in the next 10 days
Identifier
54230, 2022-148A
Orbit
GEO
Country
Flag of CNCN / PRC
Related business
Manufacturer
CAST?
Mission
Operational Civil Communications
Bus & Motor
DFH-4?, DFH-4 LAE
Mass
~5,250 kg wet, ~2,500 kg dry
Launch date (UTC)
2022-11-05 (3 years ago)
Launch vehicle
CHANG ZHENG 3B
Launch site
Xichang Space Center, China (XSC)
Object type
Payload
Rocket body
Debris
Shape & HBR
Box + 2 Pan, 15.0 m
Radar Cross Section
34.063 m², Large (>1 m²)

Expand to show TLE details & history
Last TLE update: 2 days ago

TLE from 2 days ago
0 CHINASAT 19
1 54230U 22148A   26092.56989009 -.00000087  00000-0  00000-0 0  9992
2 54230   0.0299  90.5303 0002439 279.9636 188.7496  1.00272198 12620
Epoch: 2026-04-02T13:40Z
TLE epoch observation values (Epoch: 2026-04-02T13:40:38.503Z)
Latitude
0.01245°
Longitude
163.17462°
Altitude
35,796.187 km
Speed
3.074 km/s
True Right ascension
13h 17m 00s
True Declination
0° 00' 45"
Sunlit
Object was in daylight at epoch
Visualization orbit readout
Latitude
Unknown
Longitude
Unknown
Altitude
Unknown
Speed
Unknown
Apparent Right ascension
Unknown
Apparent Declination
Unknown
Sunlit
N/A
Visualization observer readout
Local Sidereal Time
07:03:24
Azimuth
Unknown
Elevation
Unknown
Doppler factor
Unknown
Orbital elements
Apogee altitude
35,797.834 km
Perigee altitude
35,777.265 km
Semi-major axis
42,165.687 km
Eccentricity
0.00024
Inclination
0.0299°
RAAN
90.5303°
Arg. of periapsis
279.9636°
True anomaly
188.74535°
Mean anomaly
188.7496°
Eccentric anomaly
188.74747°
Mean motion
0.25067 °/min
Orbital period
1,436.14 mins
BSTAR
0
Loading maneuver chart data...
Computing Atmospheric mass density...
Loading historical data...
Loading historical data...
Loading historical data...
Loading historical data...
Loading historical data...
Loading historical data...
Loading historical data...
Other satellites on launch #148 in the year 2022 (2022-11-05 UTC)

Documentation

Showing up to 5 results
|